| time (UTC) | temp F | wind direction | speed MPH | gust MPH | rain 1hr in | rain 24hr in | rain mn in | humidity % | barometer mb |
| 20260510114517 | 50 | 149 | 0.0 | 0.0 | 0.00 | 0.26 | 0.00 | 98 | 1010.4 |
| 20260510113015 | 50 | 149 | 0.0 | 0.0 | 0.00 | 0.26 | 0.00 | 98 | 1010.2 |
| 20260510111516 | 50 | 149 | 0.0 | 0.0 | 0.00 | 0.26 | 0.00 | 98 | 1010.3 |
| 20260510110023 | 50 | 149 | 0.0 | 0.0 | 0.00 | 0.26 | 0.00 | 98 | 1010.3 |
| 20260510104514 | 49 | 149 | 0.0 | 0.0 | 0.00 | 0.26 | 0.00 | 98 | 1010.1 |
| 20260510103018 | 49 | 149 | 0.0 | 0.0 | 0.00 | 0.26 | 0.00 | 97 | 1009.8 |
| 20260510101512 | 49 | 149 | 0.0 | 0.0 | 0.00 | 0.26 | 0.00 | 97 | 1009.7 |
| 20260510100024 | 49 | 149 | 0.0 | 0.0 | 0.00 | 0.26 | 0.00 | 97 | 1009.8 |
| 20260510094514 | 49 | 149 | 0.0 | 0.0 | 0.00 | 0.26 | 0.00 | 97 | 1009.6 |
| 20260510093010 | 49 | 149 | 0.0 | 0.0 | 0.00 | 0.26 | 0.00 | 97 | 1009.9 |
| 20260510091509 | 49 | 149 | 0.0 | 0.0 | 0.00 | 0.26 | 0.00 | 97 | 1009.7 |
| 20260510090011 | 49 | 149 | 0.0 | 0.0 | 0.00 | 0.26 | 0.00 | 98 | 1009.8 |
| 20260510084508 | 49 | 149 | 0.0 | 0.0 | 0.00 | 0.26 | 0.00 | 97 | 1010.1 |
| 20260510083018 | 49 | 149 | 0.0 | 0.0 | 0.00 | 0.26 | 0.00 | 97 | 1010.1 |
| 20260510081507 | 49 | 154 | 0.0 | 4.0 | 0.00 | 0.26 | 0.00 | 98 | 1010.3 |
| 20260510080021 | 49 | 340 | 2.0 | 8.0 | 0.00 | 0.26 | 0.00 | 97 | 1010.1 |
| 20260510074504 | 48 | 271 | 1.0 | 14.0 | 0.00 | 0.26 | 0.00 | 97 | 1009.8 |
| 20260510073002 | 49 | 221 | 0.0 | 0.0 | 0.00 | 0.26 | 0.00 | 97 | 1009.3 |
| 20260510071501 | 49 | 221 | 0.0 | 0.0 | 0.00 | 0.26 | 0.00 | 97 | 1009.3 |
| 20260510070100 | 49 | 221 | 0.0 | 0.0 | 0.00 | 0.26 | 0.00 | 97 | 1009.3 |
| 20260510064600 | 49 | 221 | 0.0 | 0.0 | 0.00 | 0.26 | 0.00 | 97 | 1009.4 |
| 20260510063058 | 49 | 221 | 0.0 | 0.0 | 0.00 | 0.26 | 0.00 | 97 | 1009.6 |
| 20260510061557 | 50 | 221 | 0.0 | 0.0 | 0.00 | 0.26 | 0.00 | 97 | 1009.7 |
| 20260510060056 | 50 | 221 | 0.0 | 0.0 | 0.00 | 0.26 | 0.00 | 97 | 1009.5 |
| 20260510054555 | 50 | 221 | 0.0 | 0.0 | 0.00 | 0.26 | 0.00 | 97 | 1009.3 |
| 20260510053056 | 50 | 221 | 0.0 | 0.0 | 0.00 | 0.26 | 0.00 | 97 | 1009.3 |
| 20260510051553 | 50 | 221 | 0.0 | 0.0 | 0.00 | 0.26 | 0.00 | 97 | 1009.3 |
| 20260510050051 | 50 | 221 | 0.0 | 0.0 | 0.00 | 0.26 | 0.00 | 97 | 1009.3 |
| 20260510044557 | 50 | 221 | 0.0 | 0.0 | 0.00 | 0.26 | 0.00 | 97 | 1009.4 |
| 20260510043103 | 50 | 221 | 0.0 | 0.0 | 0.00 | 0.26 | 0.00 | 97 | 1009.5 |
| 20260510041549 | 51 | 221 | 0.0 | 0.0 | 0.00 | 0.26 | 0.00 | 97 | 1009.6 |
| 20260510040056 | 51 | 221 | 0.0 | 0.0 | 0.00 | 0.26 | 0.00 | 97 | 1009.5 |
| 20260510034548 | 50 | 221 | 0.0 | 0.0 | 0.00 | 0.26 | 0.00 | 97 | 1009.3 |
| 20260510033058 | 50 | 221 | 0.0 | 0.0 | 0.00 | 0.26 | 0.26 | 97 | 1009.2 |
| 20260510031549 | 50 | 221 | 0.0 | 0.0 | 0.00 | 0.26 | 0.26 | 97 | 1009.2 |
| 20260510030046 | 50 | 221 | 0.0 | 0.0 | 0.00 | 0.26 | 0.26 | 96 | 1009.0 |
| 20260510024542 | 50 | 221 | 0.0 | 0.0 | 0.00 | 0.26 | 0.26 | 96 | 1009.1 |
| 20260510023042 | 50 | 221 | 0.0 | 0.0 | 0.00 | 0.26 | 0.26 | 96 | 1009.1 |
| 20260510021541 | 50 | 221 | 0.0 | 0.0 | 0.00 | 0.26 | 0.26 | 96 | 1009.2 |
| 20260510020044 | 50 | 221 | 0.0 | 0.0 | 0.00 | 0.26 | 0.26 | 96 | 1009.2 |
| 20260510014545 | 50 | 221 | 0.0 | 0.0 | 0.00 | 0.26 | 0.26 | 96 | 1009.2 |
| 20260510013039 | 51 | 221 | 0.0 | 0.0 | 0.00 | 0.26 | 0.26 | 96 | 1009.0 |
| 20260510011542 | 51 | 221 | 0.0 | 0.0 | 0.00 | 0.26 | 0.26 | 96 | 1009.2 |
| 20260510010037 | 52 | 221 | 0.0 | 0.0 | 0.00 | 0.26 | 0.26 | 96 | 1008.9 |
| 20260510004538 | 52 | 221 | 0.0 | 0.0 | 0.00 | 0.26 | 0.26 | 96 | 1008.5 |
| 20260510003037 | 52 | 221 | 0.0 | 0.0 | 0.00 | 0.26 | 0.26 | 96 | 1008.4 |
| 20260510001536 | 53 | 221 | 0.0 | 0.0 | 0.00 | 0.26 | 0.26 | 96 | 1008.3 |
| 20260510000056 | 53 | 221 | 0.0 | 0.0 | 0.00 | 0.26 | 0.26 | 95 | 1008.4 |
| 20260509234634 | 53 | 221 | 0.0 | 0.0 | 0.00 | 0.26 | 0.26 | 95 | 1008.4 |
| 20260509233034 | 53 | 221 | 0.0 | 0.0 | 0.00 | 0.26 | 0.26 | 95 | 1008.2 |
| 20260509231532 | 54 | 221 | 0.0 | 0.0 | 0.00 | 0.26 | 0.26 | 95 | 1008.0 |
| 20260509230035 | 54 | 221 | 0.0 | 0.0 | 0.00 | 0.26 | 0.26 | 95 | 1008.1 |
| 20260509224529 | 55 | 182 | 0.0 | 0.0 | 0.00 | 0.26 | 0.26 | 95 | 1008.1 |
| 20260509223059 | 55 | 49 | 0.0 | 0.0 | 0.00 | 0.26 | 0.26 | 95 | 1008.1 |
| 20260509221549 | 55 | 49 | 0.0 | 0.0 | 0.00 | 0.26 | 0.26 | 95 | 1008.2 |
| 20260509220047 | 55 | 58 | 0.0 | 0.0 | 0.00 | 0.26 | 0.26 | 96 | 1008.2 |
| 20260509214547 | 55 | 58 | 0.0 | 1.0 | 0.02 | 0.26 | 0.26 | 95 | 1008.2 |
| 20260509213046 | 55 | 58 | 0.0 | 0.0 | 0.03 | 0.26 | 0.26 | 96 | 1008.2 |
| 20260509211545 | 53 | 58 | 0.0 | 0.0 | 0.05 | 0.26 | 0.26 | 96 | 1008.4 |
| 20260509210049 | 53 | 58 | 0.0 | 0.0 | 0.06 | 0.26 | 0.26 | 96 | 1008.4 |
| 20260509204550 | 53 | 58 | 0.0 | 0.0 | 0.07 | 0.24 | 0.24 | 96 | 1008.4 |
| 20260509203043 | 53 | 58 | 0.0 | 0.0 | 0.07 | 0.23 | 0.23 | 96 | 1008.4 |
| 20260509201546 | 53 | 58 | 0.0 | 0.0 | 0.07 | 0.21 | 0.21 | 95 | 1008.4 |
| 20260509200052 | 53 | 58 | 0.0 | 0.0 | 0.07 | 0.19 | 0.19 | 95 | 1008.6 |
| 20260509194538 | 53 | 347 | 0.0 | 0.0 | 0.08 | 0.17 | 0.17 | 95 | 1009.0 |
| 20260509193036 | 53 | 347 | 0.0 | 0.0 | 0.09 | 0.17 | 0.16 | 95 | 1009.1 |
| 20260509191535 | 53 | 191 | 0.0 | 0.0 | 0.09 | 0.15 | 0.14 | 94 | 1009.3 |
| 20260509190035 | 53 | 184 | 0.0 | 3.0 | 0.09 | 0.13 | 0.12 | 94 | 1009.3 |
| 20260509184544 | 54 | 281 | 0.0 | 6.0 | 0.08 | 0.10 | 0.09 | 93 | 1009.4 |
| 20260509183034 | 54 | 205 | 0.0 | 0.0 | 0.06 | 0.08 | 0.07 | 93 | 1009.2 |
| 20260509181532 | 54 | 225 | 0.0 | 3.0 | 0.05 | 0.06 | 0.06 | 91 | 1009.2 |
| 20260509180029 | 55 | 196 | 0.0 | 1.0 | 0.02 | 0.04 | 0.03 | 90 | 1009.8 |
| 20260509174534 | 56 | 179 | 0.0 | 6.0 | 0.01 | 0.02 | 0.02 | 88 | 1009.9 |
| 20260509173027 | 58 | 188 | 1.0 | 7.0 | 0.00 | 0.02 | 0.01 | 85 | 1009.9 |
| 20260509171532 | 58 | 238 | 2.0 | 9.0 | 0.00 | 0.02 | 0.01 | 83 | 1009.6 |
| 20260509170027 | 58 | 238 | 0.0 | 8.0 | 0.00 | 0.02 | 0.01 | 81 | 1009.5 |
| 20260509164526 | 59 | 233 | 3.0 | 12.0 | 0.00 | 0.02 | 0.01 | 78 | 1009.4 |
| 20260509163026 | 59 | 213 | 2.0 | 9.0 | 0.00 | 0.02 | 0.01 | 77 | 1009.5 |
| 20260509161527 | 59 | 224 | 3.0 | 14.0 | 0.00 | 0.02 | 0.01 | 78 | 1009.7 |
| 20260509160021 | 58 | 247 | 1.0 | 10.0 | 0.01 | 0.02 | 0.01 | 82 | 1009.6 |
| 20260509154518 | 58 | 248 | 2.0 | 12.0 | 0.01 | 0.02 | 0.01 | 82 | 1010.0 |
| 20260509153030 | 58 | 193 | 2.0 | 9.0 | 0.01 | 0.02 | 0.01 | 83 | 1010.0 |
| 20260509151512 | 57 | 134 | 3.0 | 8.0 | 0.01 | 0.02 | 0.01 | 86 | 1010.1 |
| 20260509150010 | 57 | 225 | 0.0 | 0.0 | 0.00 | 0.01 | 0.00 | 87 | 1010.2 |
| 20260509144522 | 56 | 225 | 0.0 | 3.0 | 0.00 | 0.01 | 0.00 | 87 | 1010.3 |
| 20260509143038 | 56 | 216 | 0.0 | 5.0 | 0.00 | 0.01 | 0.00 | 87 | 1010.1 |
| 20260509141539 | 55 | 201 | 0.0 | 6.0 | 0.00 | 0.01 | 0.00 | 86 | 1010.0 |
| 20260509140033 | 55 | 209 | 0.0 | 4.0 | 0.00 | 0.01 | 0.00 | 87 | 1009.8 |
| 20260509134548 | 54 | 340 | 0.0 | 3.0 | 0.00 | 0.01 | 0.00 | 89 | 1010.0 |
| 20260509133032 | 54 | 340 | 0.0 | 1.0 | 0.00 | 0.01 | 0.00 | 87 | 1010.1 |
| 20260509131530 | 53 | 340 | 0.0 | 0.0 | 0.00 | 0.01 | 0.00 | 87 | 1010.2 |
| 20260509130025 | 52 | 340 | 0.0 | 0.0 | 0.00 | 0.01 | 0.00 | 88 | 1010.4 |
| 20260509124521 | 52 | 340 | 0.0 | 0.0 | 0.00 | 0.01 | 0.00 | 91 | 1010.4 |
| 20260509123012 | 51 | 340 | 0.0 | 0.0 | 0.00 | 0.01 | 0.00 | 93 | 1010.4 |
| 20260509121521 | 50 | 340 | 0.0 | 0.0 | 0.00 | 0.01 | 0.00 | 94 | 1010.3 |
| 20260509120007 | 50 | 340 | 0.0 | 0.0 | 0.00 | 0.01 | 0.00 | 96 | 1010.5 |